Lid_Strength_Index
3 2 0 -1 -1 -1 -1 -0 -0 0 -0 -0 -0 -1 -0 -0 -1 -2 -2 -2 -3 -3 -3 -2 -2 -2 -2 -1 -1 -1 2 1
5 5 4 4 4 -1 -1 -1 -1 -1 0 -0 0 2 1 -1 -1 -2 -2 -1 -2 -1 -2 -1 -1 -2 -2 -1 -1 0 1 0
5 6 6 5 4 2 2 0 1 1 2 1 3 5 4 3 -1 -1 -0 -0 -0 -1 -0 -0 1 1 -0 -0 1 3 2 0
5 5 5 5 3 6 6 4 4 5 5 5 5 5 4 3 2 1 0 1 1 1 1 2 3 5 5 3 4 4 3 1
6 6 5 5 6 7 6 5 5 5 5 5 6 5 5 5 5 6 6 3 6 5 6 6 6 6 6 6 5 4 4 2
7 7 7 6 6 7 6 5 5 5 5 5 6 6 6 6 6 7 7 7 7 7 7 7 7 7 7 7 6 6 5 4
7 7 7 7 7 7 6 5 5 5 5 5 5 6 6 6 7 7 8 7 8 8 8 8 8 7 7 7 7 6 6 5
7 7 7 6 6 6 6 6 5 5 5 4 4 6 6 6 7 7 7 8 8 8 8 9 10 9 9 8 8 8 8 6
7 7 7 6 6 6 6 5 5 5 5 4 4 6 6 6 7 7 7 7 9 9 10 9 9 9 9 9 9 9 8 8
6 5 7 7 6 6 5 5 5 5 5 4 4 5 6 6 7 7 7 8 9 9 9 8 9 10 10 11 10 9 9 8
6 7 7 6 6 6 5 5 5 5 4 5 4 5 5 6 7 8 8 9 9 9 9 10 10 10 9 10 10 10 10 8
6 7 6 6 6 6 6 6 5 4 4 5 5 5 6 7 8 9 9 9 10 10 10 10 10 10 8 9 10 10 10 9
6 7 6 6 7 7 6 6 5 4 4 5 6 6 6 8 8 9 9 10 11 10 10 10 10 9 10 10 10 9 10 10
7 6 6 5 6 6 6 5 5 4 5 5 6 7 8 8 9 9 10 10 11 11 10 11 11 10 11 11 11 10 9 10
6 6 6 5 6 6 5 4 4 5 5 7 8 8 8 8 9 9 10 10 11 11 11 11 12 10 10 11 13 14 12 10
6 5 5 5 6 5 5 5 5 5 7 8 8 8 8 8 8 9 10 10 10 10 10 11 11 11 10 9 11 12 14 14
6 5 5 5 5 5 5 5 4 5 7 8 9 9 8 8 9 9 10 10 10 10 11 11 10 10 11 11 11 12 12 14
6 5 4 5 5 6 5 5 6 7 8 9 9 9 8 8 9 10 10 10 10 11 11 10 10 11 11 11 11 12 12 13
6 5 6 5 5 5 6 6 6 7 8 8 8 8 9 10 9 9 8 8 9 10 10 11 12 13 13 12 11 11 11 12
6 5 5 5 5 6 6 6 7 7 7 7 8 8 8 8 8 9 9 9 10 11 11 12 13 14 15 14 14 14 12 12